EW7066 Weather Reports


Display with metric or nautical units.
time (UTC)temp
F
wind
direction
speed
MPH
gust
MPH
rain 1hr
in
rain 24hr
in
rain mn
in
humidity
%
barometer
mb
20260504011516 62 54 2.0 7.0 0.00 0.09 0.09 100 981.2
20260504010013 63 56 2.0 7.0 0.00 0.09 0.09 100 981.2
20260504004510 64 61 2.0 10.0 0.00 0.09 0.09 100 981.2
20260504003100 65 63 3.0 10.0 0.00 0.09 0.09 100 981.4
20260504001612 66 42 3.0 11.0 0.00 0.09 0.09 100 981.2
20260504000052 66 63 5.0 14.0 0.00 0.09 0.09 100 981.3
20260503234548 67 58 4.0 11.0 0.00 0.09 0.09 100 981.3
20260503233040 67 57 1.0 16.0 0.00 0.09 0.09 100 981.2
20260503231536 67 48 4.0 12.0 0.00 0.09 0.09 100 981.4
20260503230032 67 31 2.0 16.0 0.00 0.09 0.09 100 981.5
20260503224528 66 40 3.0 11.0 0.00 0.09 0.09 100 981.6
20260503223020 66 22 3.0 15.0 0.00 0.09 0.09 100 981.8
20260503221528 66 37 1.0 17.0 0.00 0.09 0.09 100 981.9
20260503220012 66 42 3.0 13.0 0.00 0.09 0.09 100 982.1
20260503214507 67 16 4.0 16.0 0.00 0.09 0.09 100 982.3
20260503213003 66 39 3.0 18.0 0.00 0.09 0.09 100 982.5
20260503211608 65 58 1.0 17.0 0.00 0.09 0.09 100 982.8
20260503210056 64 25 6.0 21.0 0.00 0.09 0.09 100 983.1
20260503204553 64 75 2.0 20.0 0.00 0.09 0.09 100 983.3
20260503203040 65 91 4.0 19.0 0.00 0.09 0.09 100 983.4
20260503201537 63 13 6.0 19.0 0.00 0.09 0.09 100 983.6
20260503200034 63 11 11.0 23.0 0.00 0.09 0.09 100 983.6
20260503194530 64 13 2.0 21.0 0.00 0.09 0.09 100 983.8
20260503193021 63 25 11.0 22.0 0.00 0.09 0.09 100 984.1
20260503191521 62 2 3.0 21.0 0.00 0.09 0.09 100 984.5
20260503190019 59 50 6.0 22.0 0.00 0.09 0.09 100 984.7
20260503184509 57 14 3.0 19.0 0.01 0.09 0.09 100 985.1
20260503183112 54 350 4.0 16.0 0.02 0.09 0.09 100 985.4
20260503181622 51 35 4.0 11.0 0.03 0.09 0.09 100 985.7
20260503180113 49 33 3.0 13.0 0.04 0.09 0.09 100 986.3
20260503174555 49 41 1.0 14.0 0.03 0.08 0.08 100 987.1
20260503173053 49 53 1.0 10.0 0.02 0.07 0.07 100 987.8
20260503171639 49 26 2.0 8.0 0.03 0.06 0.06 100 988.2
20260503150103 54 67 5.0 15.0 0.00 0.00 0.00 100 988.8
20260503081518 44 66 3.0 9.0 0.00 0.00 0.00 100 990.1
20260503071531 44 52 2.0 6.0 0.00 0.00 0.00 100 990.2
20260503054557 45 62 1.0 9.0 0.00 0.00 0.00 100 990.9
20260503053053 45 66 2.0 9.0 0.00 0.00 0.00 100 991.1
20260503051549 45 87 2.0 7.0 0.00 0.00 0.00 100 991.1
20260503050042 45 92 1.0 4.0 0.00 0.00 0.00 100 991.2
20260503044607 45 93 1.0 4.0 0.00 0.00 0.00 100 991.3
20260503043034 45 94 1.0 3.0 0.00 0.00 0.00 100 991.3
20260503041529 45 95 1.0 5.0 0.00 0.00 0.00 100 991.4
20260503040021 45 96 2.0 4.0 0.00 0.00 0.00 100 991.4
20260503034518 45 98 2.0 4.0 0.00 0.00 0.00 100 991.4
20260503033014 46 98 1.0 4.0 0.00 0.00 0.00 100 991.4
20260503031508 46 98 1.0 3.0 0.00 0.00 0.00 100 991.4
20260503030002 47 98 0.0 3.0 0.00 0.00 0.00 100 991.6
20260503024601 47 98 1.0 3.0 0.00 0.00 0.00 100 991.7
20260503023058 48 99 0.0 2.0 0.00 0.00 0.00 100 991.6
20260503021548 48 98 0.0 2.0 0.00 0.00 0.00 100 991.7
20260503020042 49 99 1.0 3.0 0.00 0.00 0.00 100 991.5
20260503014544 49 99 0.0 2.0 0.00 0.00 0.00 100 991.6
20260503013033 50 99 0.0 2.0 0.00 0.00 0.00 100 991.2